Regional Weather Roundup
Issued by NWS

Home | Current Version | Previous Version | Text Only | Print | Product List | Glossary Off
Versions: 1 2 3 4 5 6 7 8 9 10 11 12 13 14 15 16 17 18 19 20 21 22 23 24 25 26 27

000
ASUS45 KBOU 221907
RWRCO

WEATHER ROUNDUP FOR COLORADO
NATIONAL WEATHER SERVICE DENVER/BOULDER CO
100 PM MDT MON MAY 22 2017

NOTE: "FAIR" INDICATES FEW OR NO CLOUDS BELOW 12000 FEET WITH NO
SIGNIFICANT WEATHER AND/OR OBSTRUCTIONS TO VISIBILITY.

COZ001>005-013-030-031-222000-
...NORTHWEST COLORADO...

CITY           SKY/WX    TMP DP  RH WIND       PRES   REMARKS
CRAIG          CLOUDY    55  34  45 W13       30.22F
HAYDEN         FAIR      54  30  40 W14       30.23F
MEEKER         CLOUDY    57  33  40 E3        30.24F
RABBIT EARS PA LGT SNOW  32  32 100 W9G18     30.33F WCI  24
STEAMBOAT SPGS CLOUDY    46  38  75 E9        30.24S
WALDEN           N/A     50  30  46 W8        30.24F
$$

COZ006>008-011-222000-
...WEST CENTRAL VALLEYS...

CITY           SKY/WX    TMP DP  RH WIND       PRES   REMARKS
GRAND JUNCTION FAIR      67  33  28 VRB5      30.17F
MONTROSE       FAIR      63  29  27 VRB3      30.22F
EAGLE          PTSUNNY   57  30  35 E3        30.23F
RIFLE          PTSUNNY   65  28  24 MISG      30.18F
DELTA          FAIR      69  35  28 S9        30.19F
NUCLA          FAIR      64  30  27 W3        30.25F
$$

COZ017>023-064>068-222000-
...SOUTHWEST COLORADO...

CITY           SKY/WX    TMP DP  RH WIND       PRES   REMARKS
DURANGO        FAIR      65  28  24 MISG      30.16F
CORTEZ         FAIR      68  33  27 NW15G23   30.18F
PAGOSA SPRINGS FAIR      64  21  19 SW13      30.19F
TELLURIDE      FAIR      55  25  31 N7        30.33S
WOLF CREEK PAS CLOUDY    37  19  48 SW5       30.42F
$$

COZ009-010-012-014-032>034-037-058>063-222000-
...CENTRAL COLORADO...

CITY           SKY/WX    TMP DP  RH WIND       PRES   REMARKS
ASPEN          PTSUNNY   53  29  39 N12       30.24F
BUENA VISTA    PTSUNNY   56  22  27 W10G18    30.21F
COPPER MTN     LGT SNOW  34  25  69 NW15G26   30.37S WCI  24
BERTHOUD PASS  LGT SNOW  25  14  63 NW24G32   30.34F WCI   9
COTTONWOOD PAS FAIR      50  23  34 W8        30.30S
GUNNISON       PTSUNNY   56  29  35 W8        30.23F
KREMMLING      PTSUNNY   59  28  31 W12       30.24F
LEADVILLE      CLOUDY    44  18  35 W18       30.29F
MONARCH PASS   PTSUNNY   36  27  69 NW9G16    30.48S
SALIDA         PTSUNNY   60  25  25 W7        30.27F
SUNLIGHT       FAIR      37  23  56 W8        30.41F
WILKERSON PASS CLOUDY    36  27  69 SW5       30.36F
$$

COZ069>075-222000-
...SAN LUIS VALLEY/SANGRE DE CRISTO MOUNTAINS...

CITY           SKY/WX    TMP DP  RH WIND       PRES   REMARKS
ALAMOSA        FAIR      62  28  27 N10G18    30.18F
DEL NORTE      FAIR      60  31  33 E7        30.20F
LA VETA PASS   PTSUNNY   43  37  81 N9        30.40F
SAGUACHE       FAIR      59  25  27 NW18G29   30.20F
$$

COZ035-036-038>040-222000-
...NORTHERN COLORADO FRONT RANGE...

CITY           SKY/WX    TMP DP  RH WIND       PRES   REMARKS
DENVER INTL AP FAIR      64  32  30 NW12G18   30.11F
DMNS CITY PARK   N/A     65  30  26 NE16      30.10F
AURORA         MOSUNNY   62  29  28 NE8       30.13F
FRONT RANGE AP PTSUNNY   64  36  34 N15G22    30.13F
ERIE MUNI ARPT PTSUNNY   64  29  26 NW6       30.10F
BOULDER MUN AP PTSUNNY   63  32  31 N3        30.10F
CENTENNIAL     FAIR      61  28  28 VRB6      30.13F
BROOMFIELD     PTSUNNY   63  30  29 SE3       30.15S
FORT COLLINS   FAIR      67  32  27 NW14      30.08F
LONGMONT       PTSUNNY   68  32  25 CALM      30.10F
$$

COZ041-046-047-076>085-087-088-222000-
...PIKES PEAK/PALMER DIVIDE AND SOUTHERN FOOTHILLS...

CITY           SKY/WX    TMP DP  RH WIND       PRES   REMARKS
COLO. SPRINGS  FAIR      63  28  26 NE10G21   30.16F
A. F. ACADEMY  FAIR      59  26  28 N6G17     30.17F
SCHRIEVER AFB  FAIR      60  28  30 NW13G18   30.16F
CHEYENNE MTN   PTSUNNY   55  30  37 N5        30.13
ELLICOTT       FAIR     N/A N/A N/A N12G18    30.15F
FALCON         FAIR      59  24  26 NW12G20   30.19F
FORT CARSON    PTSUNNY   60  36  40 NW7       30.15F
LIMON          FAIR      63  33  32 NW14G26   30.12F
MONUMENT HILL  FAIR      54  28  37 N14G20    30.20F
CANON CITY     NOT AVBL
WALSENBURG     FAIR      59  43  55 CALM      30.17F
TRINIDAD       PTSUNNY   59  40  49 N13       30.17F
$$

COZ042>045-048>051-090-091-222000-
...NORTHEAST COLORADO...

CITY           SKY/WX    TMP DP  RH WIND       PRES   REMARKS
GREELEY ARPT   FAIR      67  35  30 NW16G25   30.07F
AKRON          CLOUDY    60  37  42 W13       30.07F
BURLINGTON     FAIR      68  38  33 NW13      30.06F
WRAY           FAIR      70  34  26 NW12G20   30.03F
YUMA           NOT AVBL
STERLING       FAIR      66  41  39 N15G23    30.04S
HOLYOKE        NOT AVBL
FORT MORGAN    PTSUNNY   64  32  29 NW14      30.07F
$$

COZ086-089-092>099-222000-
...SOUTHEAST COLORADO...

CITY           SKY/WX    TMP DP  RH WIND       PRES   REMARKS
PUEBLO         FAIR      63  41  44 W7        30.12F
LA JUNTA       FAIR      63  44  50 CALM      30.11F
LAMAR          FAIR      62  47  57 NW9       30.09F
SPRINGFIELD      N/A     57  48  72 N12       30.12F
$$




USA.gov is the U.S. government's official web portal to all federal, state and local government web resources and services.